Powrót do katalogu

FENGYUN 1C DEB

AktywnyLEO
NORAD 35203·DEBRIS·🇨🇳 China

Wystrzelony May 10, 1999 z Taiyuan Satellite Launch Center

Loading…

Następne Przeloty (najbliższe 24 godziny)

TLE

ŚwieżeSource: Space-Track

Epoka: Sep 14, 2026, 06:25 UTC

1 35203U 99025DPK 26257.26765380  .00001188  00000-0  13520-2 0  9998
2 35203 102.0836 275.5085 0514163 277.7930  76.5128 13.27363646633059

Śledź FENGYUN 1C DEB w czasie rzeczywistym z AllMySat

Download on the App Store